Weather in Mikheykovo

Russia / Smolensk Oblast     55°05′13″N   32°40′31″E
temp.,
°C
wind,
m/s
gust,
m/s
humid.,
%
clouds,
%
prec.,
mm/h
press.,
hPa
HPBL,
m
21 january, fri
fri2100:00−2ssw51189100 0.1 997885
03:00−3s41095100 0.3 996648
06:00−5ssw5118824 1.9 995662
09:00−8s41292100 1.9 994466
12:00−6sse51293100 0.2 993600
15:00−4sse51195100 0.9 992625
18:00−4sse3896100 1.0 991397
21:00−6ese1298100 1.4 99245
22 january, sat
sat2200:00−8ne0098100 0.2 99412
03:00−7nne2696100 0.6 996199
06:00−8n389598 0.2 998262
09:00−8n499484 0.4 1002326
12:00−8n3793100 0.2 1005371
15:00−7n369397 0.4 1007421
18:00−9nnw279697 0.1 1010207
21:00−10nne259874 0.4 101283
23 january, sun
sun2300:00−14nne259997 0.1 101578
03:00−15ne259985 0.1 101891
06:00−19ne2110088 0.0 102135
09:00−18ne24100100 0.1 102472
12:00−11ene249699 0.1 1027156
15:00−8ne249471 0.1 1029217
18:00−13nne269866 0.0 103270
21:00−17ne229969 0.0 103437
24 january, mon
mon2400:00−20ne21100100 0.0 103630
03:00−22nne21100100 0.0 103717
06:00−21nne23100100 0.0 103749
09:00−21ne23100100 0.0 103741
12:00−12ene249473 0.0 1035136
15:00−9nne239251 0.0 1034176
18:00−16ne1110072 0.0 10349
21:00−20ene1110092 0.0 103310
25 january, tue
tue2500:00−21n1110098 0.0 10329
03:00−22nw00100100 0.0 10309
06:00−22s11100100 0.0 10289
09:00−22s11100100 0.1 10269
12:00−12s239799 0.0 1024140
15:00−9s249491 0.1 1021249
18:00−16se1110082 0.0 10219
21:00−19se1110099 0.0 10229